Prince George Airport
CYXS : now visible

Airfield :











YOU CAN JOIN US ON...

 
LOGIN :

Register | Disclaimer

   EN    FR    IT 

 









Legend :    VFR   Marginal VFR   IFR   Intensive IFR   Very Intensive IFR
Visi :
Ceiling :
>= 8 km
>= 3000ft
5 to 8 km
1000 to 3000 ft
1500m to 5 km
500 to 1000 ft
800 to 1500m
200 to 500 ft
< 800m
< 200 ft
Symbols :   Thunderstorms  Fog  Heavy snow  Heavy precipitations  Wind > 20 kt







- Airport Elevation : 2267 ft
- IATA code : YXS


CYXS - Prince George

CURRENT METAR :
  • 162100Z AUTO 17013KT 160V220 9SM FEW028 15/08 A2969 RMK SLP070 DENSITY ALT 3000FT

EXPIRED METARs :
  • 162000Z AUTO 17012KT 9SM SCT020 13/09 A2971 RMK SLP078 DENSITY ALT 2800FT

TAF TAF CYXS
Valid from the 16 at 19:00 until the 17 at 07:00 UTC


161841Z 1619/1707 VRB03KT P6SM SCT008 BKN025 OVC180
TEMPO 1619/1621 BKN008
FM162100 18008KT P6SM SCT030 BKN060
TEMPO 1621/1702 P6SM -SHRA VCTS BKN030CB
FM170200 18008KT P6SM SCT050 BKN200 RMK FCST BASED ON AUTO OBS. NXT FCST BY 170100Z
No reported NOTAMs for that airfield.



MET'MAP, your aeronautical weather chart ! - Copyright ORBIFLY December 2007 - Disclaimer

ORBIFLY MET'MAP TEAM :

Programming & Development : Alexandra Zaïnal
Concept & Development : Baudouin d'Aumeries
Co-Development & Prog : Marc-Olivier Méhu
Technical & hardware support : Manuel Goepfert

Contact : metmap@orbifly.com




SOURCES & CREDITS :

   NOAA       Earth
Advisory